STARLINK-32862, 62864

Orbit data source: Space-Track

STARLINK-32862, 62864 is a payload satellite owned by SpaceX/Seattle (US) in LEO that was launched on Sat, 01 Feb 2025 UTC via an FALCON 9 launch vehicle from the Air Force Western Test Range (AFWTR). Payload-class satellites include a variety of spacecraft equipped with specific instruments for various scientific and technological missions. These include communications satellites like Starlink; space stations such as the ISS; scientific satellites like the Hubble; Earth observation satellites from companies like Planet Labs, Umbra, and HawkEye 360; GPS; miniature CubeSats for education and research; and military/defense satellites.

Loading next visibility...
Identifier
62864, 2025-022L
Orbit
LEO
Country
Flag of USUS
Related business
Manufacturer
SpaceX/Seattle
Mission
Operational Commercial Communications
Bus & Motor
STARLINK V2M, Unknown motor
Mass
730 kg wet, ~700 kg dry
Launch date (UTC)
2025-02-01 (1 year ago)
Launch vehicle
FALCON 9
Launch site
Air Force Western Test Range (AFWTR)
Object type
Payload
Rocket body
Debris
Shape & HBR
Box + 2 Pan, 17.7 m
Radar Cross Section
33.884 m², Large (>1 m²)

Expand to show TLE details & history
Last TLE update: 8 hours ago

TLE from 8 hours ago
0 STARLINK-32862
1 62864U 25022L   26037.97038460  .00043621  00000-0  14763-2 0  9991
2 62864  53.1581 272.5324 0001199 101.5700 258.5435 15.30200024 57191
Epoch: 2026-02-06T23:17Z
TLE epoch observation values (Epoch: 2026-02-06T23:17:21.229Z)
Latitude
-0.00005°
Longitude
146.09329°
Altitude
476.278 km
Speed
7.629 km/s
True Right ascension
18h 10m 07s
True Declination
0° 00' 00"
Sunlit
Object was in daylight at epoch
Visualization orbit readout
Latitude
Unknown
Longitude
Unknown
Altitude
Unknown
Speed
Unknown
Apparent Right ascension
Unknown
Apparent Declination
Unknown
Sunlit
N/A
Visualization observer readout
Local Sidereal Time
09:16:26
Azimuth
Unknown
Elevation
Unknown
Doppler factor
Unknown
Orbital elements
Apogee altitude
476.293 km
Perigee altitude
474.65 km
Semi-major axis
6,853.609 km
Eccentricity
0.00012
Inclination
53.1581°
RAAN
272.5324°
Arg. of periapsis
101.57°
True anomaly
258.53003°
Mean anomaly
258.5435°
Eccentric anomaly
258.53677°
Mean motion
3.82529 °/min
Orbital period
94.11 mins
BSTAR
0.0014763
Loading maneuver chart data...
Computing Atmospheric mass density...
Loading historical data...
Loading historical data...
Loading historical data...
Loading historical data...
Loading historical data...
Loading historical data...
Loading historical data...

Documentation

Showing up to 5 results
|